Wind_Speed
22 19 23 17 18 18 19 15 27 18 10 6 6 15 15 15 11 10 11 8 10 10 3 9 11 8 10 12 14 14 13 13 12 10 10 9 7 7 8 8 10 10 13 14
24 28 23 16 14 19 11 17 17 12 7 3 11 18 15 15 12 11 12 12 11 12 7 7 8 11 11 10 12 12 11 11 10 9 8 8 8 7 4 6 8 10 12 9
30 27 24 20 20 18 20 15 8 11 7 5 8 18 17 13 12 12 13 13 14 15 8 9 9 9 11 12 12 11 11 10 9 9 9 7 6 4 4 5 6 6 7 9
30 27 25 24 18 18 17 8 7 7 8 8 10 10 17 18 14 16 15 16 18 17 9 9 11 11 11 11 12 11 10 9 8 7 6 5 4 4 5 6 6 7 9 10
36 30 30 26 25 19 16 13 13 8 7 10 16 8 14 20 18 17 17 16 17 18 11 11 11 12 12 11 11 11 10 9 8 7 6 5 4 5 6 7 9 11 12 13
34 30 28 28 18 21 16 8 4 6 10 16 14 10 13 24 19 19 18 19 19 18 13 12 12 15 16 15 16 14 13 11 8 6 3 1 2 5 6 9 11 14 17 20
38 38 31 28 26 25 23 21 10 10 12 14 15 16 11 20 19 18 19 21 21 20 19 13 12 12 12 13 12 10 9 8 6 4 1 2 4 7 8 11 13 16 17 19
39 40 39 30 28 29 29 26 20 10 11 17 9 9 10 18 13 17 19 20 21 22 21 16 13 14 12 11 8 5 3 1 1 3 5 6 7 8 9 10 13 16 19 19
38 39 35 35 28 31 29 31 23 27 22 14 12 10 14 18 15 14 19 21 23 22 22 20 16 13 14 12 10 7 5 6 6 7 10 12 13 14 13 15 18 18 21 21
30 31 34 35 27 32 33 26 29 30 17 14 15 18 17 22 16 15 15 21 22 24 23 23 20 16 15 14 12 11 9 7 9 10 12 13 15 17 19 22 23 25 27 28
40 33 33 35 38 37 35 36 30 30 28 17 5 15 22 29 21 19 20 18 23 23 24 24 22 22 19 18 16 12 12 10 11 12 14 17 19 20 21 23 25 27 28 28
42 33 34 42 36 34 32 36 32 29 30 28 20 19 24 22 18 18 16 16 21 24 22 26 22 23 24 20 18 16 14 12 11 12 14 18 21 24 26 25 28 28 29 29
44 41 26 29 37 35 39 38 37 33 33 29 17 5 12 23 20 16 13 14 23 23 24 24 22 23 24 23 19 19 17 13 12 14 16 18 20 24 24 25 26 26 28 29
45 39 34 29 32 36 35 37 38 37 35 34 29 17 11 17 15 14 11 17 21 26 26 24 25 26 28 23 22 20 18 16 16 16 17 19 20 21 22 23 24 26 29 29
48 46 39 31 29 34 34 37 36 38 36 34 28 21 19 15 15 15 16 16 17 25 27 31 32 32 25 18 17 18 19 19 19 19 21 19 19 20 21 23 26 28 31 33
48 43 42 38 31 29 36 35 38 38 35 34 32 22 23 22 21 19 15 22 19 23 29 32 28 28 26 23 21 22 22 22 21 22 20 20 20 20 21 25 29 32 34 35
40 44 41 37 35 32 32 39 40 39 39 36 35 31 21 10 11 12 18 18 17 18 24 28 29 27 28 27 26 24 24 24 25 24 24 22 21 20 21 23 24 32 35 32
40 42 38 36 36 26 33 27 34 36 38 36 36 35 30 19 10 19 18 14 16 18 22 23 20 22 26 28 29 29 27 26 27 27 24 23 21 21 20 19 28 36 39 40
39 35 30 33 34 32 35 30 26 27 39 36 39 32 31 24 17 18 18 22 18 21 24 23 23 24 23 25 28 29 30 30 29 29 26 22 20 21 15 22 31 34 30 35
34 38 36 34 33 28 38 29 23 25 21 27 29 35 31 29 24 21 20 24 23 19 25 26 27 26 26 26 28 30 30 29 29 27 26 25 23 18 16 25 30 30 30 31
40 39 37 36 30 29 33 31 28 30 25 24 23 18 21 28 24 20 20 19 20 26 29 30 30 28 29 28 27 29 30 28 27 29 28 25 21 18 20 27 24 26 30 30
26 29 34 34 28 24 21 26 37 31 30 21 26 30 31 29 30 24 22 22 23 27 28 23 24 25 24 25 27 27 26 26 30 31 27 24 23 21 22 23 25 26 29 28
31 27 31 32 38 12 26 23 8 22 26 30 21 14 26 29 28 24 29 29 29 29 23 18 16 18 17 13 16 21 26 29 32 27 24 24 23 21 22 23 23 24 27 26
36 33 28 24 25 36 14 18 16 11 21 23 24 24 16 19 25 26 31 36 34 32 33 22 18 13 12 16 19 22 27 31 29 25 25 24 21 20 23 22 23 26 23 23
31 28 32 31 26 13 27 21 15 13 18 20 22 24 26 19 21 30 28 29 30 33 33 26 15 11 14 16 19 23 27 31 28 26 26 22 19 20 22 22 24 23 22 21
24 30 28 32 30 21 14 23 20 14 15 26 24 27 31 23 13 30 29 31 26 25 27 22 12 12 15 18 21 22 27 31 29 27 25 19 18 20 21 23 24 21 19 19
Wind_Direction
221 222 222 230 193 200 252 228 219 204 173 170 170 151 151 170 180 180 184 182 165 177 143 76 124 148 167 189 181 188 189 190 186 180 192 200 215 245 274 291 300 323 335 337
215 221 216 225 202 197 218 242 162 143 147 184 157 157 161 168 177 187 187 187 180 177 141 132 106 111 124 140 148 166 168 172 175 181 195 212 231 253 291 299 317 334 338 346
211 217 219 218 210 218 233 209 137 144 173 204 176 160 159 174 176 183 186 191 182 184 157 144 132 127 128 133 136 144 151 158 162 176 194 201 219 247 279 296 302 303 3 2
214 215 217 222 212 215 229 167 186 147 208 214 198 177 179 174 183 186 184 191 185 191 183 162 156 154 146 147 145 150 153 154 160 169 178 189 217 241 269 283 307 310 328 336
213 217 214 224 215 212 226 213 189 209 246 235 192 194 191 178 187 188 190 191 191 194 178 142 150 153 152 156 151 152 158 156 158 171 182 193 232 254 278 304 310 321 316 306
216 215 217 217 219 216 209 222 149 213 243 250 236 172 187 185 188 191 193 193 194 193 184 159 149 141 147 131 136 138 135 139 140 142 156 149 279 294 297 301 312 308 317 307
214 219 217 216 222 215 215 212 199 225 232 241 228 185 166 199 185 190 190 194 193 204 196 198 182 175 149 136 137 135 129 125 117 99 87 269 295 305 309 312 319 322 320 312
211 218 215 212 218 213 218 222 227 217 227 234 199 176 145 172 178 188 188 192 194 194 200 198 171 177 185 191 186 177 176 149 282 322 315 306 298 300 300 301 312 321 315 315
207 218 212 213 213 215 214 227 227 238 243 267 177 191 158 169 163 172 190 188 195 197 203 209 207 198 202 202 210 218 221 250 274 288 291 295 299 298 296 307 316 316 314 318
215 212 214 211 210 217 223 218 226 244 261 273 237 196 210 182 179 194 192 197 197 205 203 218 217 207 211 213 223 234 247 249 270 291 303 302 303 304 306 314 317 315 321 322
215 212 213 213 210 214 215 230 219 233 238 245 188 251 209 187 190 200 199 199 206 205 205 214 221 233 236 235 237 247 257 266 275 293 308 310 311 310 310 311 311 317 313 310
211 222 220 211 213 213 215 217 221 223 242 256 284 310 183 183 184 189 194 213 205 209 206 210 220 223 244 254 259 259 256 266 276 286 298 303 308 308 310 308 316 315 314 315
206 222 226 221 211 207 216 217 219 223 233 246 245 199 182 180 173 188 199 195 195 202 203 203 211 222 243 253 256 263 273 281 279 278 293 296 297 295 303 309 308 315 315 315
207 216 228 224 214 199 207 216 212 220 221 234 232 186 185 163 163 172 184 193 192 201 195 200 209 219 231 246 253 251 269 277 277 274 278 277 275 293 297 305 313 317 315 318
208 216 221 228 218 209 209 214 214 215 216 226 227 195 201 179 185 197 193 202 203 205 199 205 216 222 227 233 240 241 248 256 255 260 259 266 270 283 295 304 311 315 315 315
206 214 220 224 231 222 212 211 216 214 219 227 231 236 184 186 196 195 206 198 208 215 206 220 228 230 229 229 234 241 248 250 250 255 259 259 263 281 296 308 315 322 324 322
205 212 212 226 227 234 236 212 212 221 216 223 230 236 232 196 202 189 196 208 221 232 224 234 237 241 237 234 236 243 252 254 255 255 257 257 260 281 295 304 319 326 323 319
201 212 206 217 229 241 232 223 215 218 225 226 228 232 239 244 234 213 211 232 228 239 249 241 239 242 246 244 245 251 257 257 255 254 253 253 259 275 294 318 329 331 326 316
201 205 205 208 219 231 231 229 219 224 222 221 234 237 237 241 240 222 212 219 232 259 246 250 256 251 244 246 250 256 261 261 259 257 250 247 257 273 287 315 323 323 325 315
194 202 207 212 222 221 221 222 219 229 246 212 222 233 230 229 225 236 225 226 230 253 238 251 258 255 244 249 253 256 261 265 260 253 245 247 257 272 284 304 314 319 323 319
198 191 203 216 224 227 222 220 219 230 234 229 230 229 221 218 222 238 236 244 234 238 243 254 258 257 253 254 256 260 263 264 255 248 246 249 263 269 281 306 317 321 322 320
199 197 201 214 217 228 212 218 222 228 224 226 230 233 233 232 231 240 243 242 234 236 248 258 256 260 265 265 266 265 263 255 248 242 243 250 257 265 282 308 313 317 321 316
211 213 203 211 217 207 216 224 240 223 211 216 224 222 229 235 241 235 242 239 243 244 252 253 262 269 270 266 276 273 263 253 241 236 242 251 258 269 290 304 306 316 316 315
206 209 222 214 217 223 228 217 215 218 219 226 227 225 214 230 233 228 234 239 245 249 252 260 263 247 267 278 281 275 259 241 233 234 243 250 261 278 294 300 311 316 312 315
197 206 218 226 221 229 224 218 221 229 210 190 199 213 219 224 225 231 233 237 247 251 252 245 239 254 279 289 286 276 256 230 229 235 242 250 267 287 295 304 312 309 310 314
211 199 202 214 223 221 227 212 220 225 226 223 232 235 228 217 243 225 224 241 260 238 228 224 230 279 284 295 281 265 238 227 229 235 244 258 278 290 294 308 306 303 308 311
Height
3173 3176 3174 3173 3176 3184 3179 3190 3187 3184 3183 3184 3186 3188 3188 3193 3196 3196 3195 3194 3195 3197 3196 3196 3199 3200 3201 3203 3206 3209 3211 3214 3217 3220 3222 3223 3225 3226 3226 3227 3226 3225 3223 3221
3172 3169 3172 3173 3175 3176 3181 3173 3179 3181 3181 3183 3184 3185 3188 3192 3195 3196 3197 3196 3197 3198 3199 3199 3199 3200 3203 3205 3207 3209 3212 3215 3217 3219 3221 3223 3224 3225 3226 3226 3225 3224 3223 3221
3165 3167 3170 3171 3173 3174 3172 3169 3174 3177 3181 3181 3182 3185 3188 3192 3195 3196 3198 3197 3199 3200 3200 3201 3203 3204 3205 3207 3209 3211 3213 3215 3217 3219 3221 3222 3223 3224 3225 3225 3224 3224 3224 3223
3164 3164 3166 3167 3170 3172 3168 3173 3174 3176 3178 3178 3180 3181 3184 3187 3193 3195 3197 3198 3199 3200 3200 3201 3203 3205 3207 3209 3210 3213 3214 3216 3218 3220 3221 3222 3223 3224 3224 3224 3223 3223 3223 3223
3157 3159 3162 3163 3165 3169 3169 3170 3172 3176 3176 3175 3176 3181 3181 3185 3189 3193 3195 3197 3199 3199 3200 3201 3203 3205 3207 3209 3211 3213 3215 3217 3218 3220 3221 3222 3222 3223 3223 3222 3222 3222 3222 3221
3154 3158 3159 3161 3163 3166 3170 3171 3171 3175 3175 3172 3170 3173 3179 3180 3185 3188 3192 3194 3197 3198 3200 3202 3204 3206 3207 3210 3212 3213 3215 3216 3218 3219 3220 3221 3222 3222 3222 3221 3220 3220 3220 3216
3148 3149 3154 3157 3160 3164 3167 3169 3171 3174 3172 3168 3164 3168 3171 3177 3180 3184 3188 3191 3195 3197 3199 3201 3204 3206 3208 3210 3212 3213 3215 3217 3218 3219 3220 3221 3221 3221 3220 3219 3218 3218 3219 3217
3140 3144 3146 3152 3155 3160 3163 3165 3165 3169 3164 3160 3162 3163 3168 3173 3178 3181 3185 3189 3193 3197 3198 3200 3202 3205 3207 3209 3211 3212 3214 3216 3217 3218 3218 3219 3219 3219 3219 3218 3217 3217 3216 3215
3135 3139 3145 3149 3153 3158 3160 3161 3165 3163 3157 3156 3160 3163 3166 3172 3175 3180 3182 3185 3190 3193 3196 3198 3200 3202 3205 3207 3209 3211 3213 3214 3215 3216 3217 3217 3217 3217 3217 3216 3216 3214 3213 3213
3130 3136 3138 3144 3149 3153 3154 3161 3164 3161 3159 3159 3154 3158 3162 3167 3171 3177 3181 3183 3185 3190 3194 3195 3197 3199 3202 3204 3207 3208 3210 3212 3213 3214 3214 3215 3215 3214 3214 3213 3212 3210 3209 3208
3125 3130 3135 3139 3138 3146 3152 3153 3158 3160 3158 3155 3156 3158 3156 3160 3166 3173 3177 3181 3183 3186 3190 3193 3195 3197 3199 3201 3203 3205 3207 3209 3211 3211 3212 3212 3212 3212 3212 3211 3209 3208 3207 3204
3119 3124 3125 3128 3135 3143 3147 3150 3153 3155 3155 3152 3150 3154 3151 3157 3164 3168 3174 3178 3182 3184 3188 3191 3193 3195 3196 3198 3199 3201 3204 3206 3208 3209 3210 3210 3210 3209 3208 3207 3206 3205 3202 3199
3114 3116 3119 3122 3130 3134 3138 3143 3149 3152 3153 3151 3152 3154 3150 3158 3163 3166 3171 3174 3179 3183 3187 3190 3192 3193 3194 3196 3197 3198 3199 3202 3204 3206 3207 3207 3208 3206 3205 3205 3202 3202 3199 3196
3111 3113 3113 3113 3116 3126 3133 3136 3141 3146 3148 3149 3149 3151 3156 3158 3161 3165 3169 3171 3176 3180 3185 3188 3190 3191 3192 3193 3194 3196 3196 3198 3200 3203 3204 3204 3204 3204 3202 3201 3200 3199 3195 3192
3102 3105 3110 3112 3115 3120 3126 3131 3134 3138 3142 3144 3145 3147 3156 3157 3161 3163 3166 3168 3173 3177 3181 3183 3185 3187 3189 3191 3192 3192 3193 3195 3197 3198 3199 3200 3200 3199 3198 3198 3197 3195 3192 3189
3094 3100 3107 3109 3111 3114 3117 3124 3129 3134 3138 3141 3142 3144 3147 3149 3152 3159 3162 3164 3170 3174 3177 3178 3180 3183 3186 3187 3188 3188 3189 3191 3193 3194 3195 3196 3196 3196 3196 3196 3195 3194 3190 3184
3088 3095 3102 3105 3108 3110 3110 3114 3122 3128 3133 3137 3138 3142 3147 3150 3152 3155 3158 3161 3166 3170 3171 3173 3176 3178 3181 3183 3184 3184 3186 3187 3188 3189 3190 3191 3191 3192 3192 3191 3191 3187 3180 3177
3081 3089 3096 3102 3107 3103 3105 3110 3116 3122 3128 3132 3137 3140 3143 3147 3151 3152 3156 3156 3161 3163 3166 3168 3171 3173 3175 3177 3179 3180 3181 3182 3183 3184 3185 3186 3187 3187 3188 3187 3185 3180 3177 3171
3073 3083 3088 3094 3099 3103 3103 3105 3111 3115 3121 3126 3130 3135 3139 3143 3147 3148 3152 3155 3159 3157 3159 3163 3165 3167 3169 3171 3173 3174 3176 3177 3178 3179 3180 3181 3182 3181 3182 3181 3177 3173 3170 3166
3071 3079 3087 3093 3092 3089 3098 3105 3110 3114 3113 3120 3126 3130 3134 3139 3141 3147 3147 3148 3154 3155 3155 3157 3160 3162 3163 3165 3166 3168 3170 3171 3173 3175 3176 3175 3176 3176 3176 3175 3171 3168 3166 3163
3064 3072 3078 3083 3086 3089 3096 3102 3108 3107 3114 3116 3120 3124 3127 3131 3137 3144 3144 3144 3147 3149 3152 3154 3155 3156 3157 3159 3161 3163 3164 3166 3169 3170 3170 3171 3171 3171 3171 3169 3166 3163 3159 3157
3060 3067 3073 3080 3084 3087 3091 3097 3099 3104 3110 3114 3117 3121 3125 3129 3133 3137 3138 3136 3141 3144 3146 3148 3149 3150 3152 3154 3156 3158 3160 3162 3162 3163 3164 3166 3165 3165 3165 3164 3162 3158 3156 3153
3064 3066 3071 3076 3079 3085 3088 3091 3094 3099 3101 3108 3112 3116 3120 3124 3127 3131 3129 3132 3136 3139 3142 3143 3144 3146 3147 3149 3151 3152 3154 3154 3155 3158 3160 3161 3161 3161 3161 3159 3157 3154 3150 3148
3061 3066 3068 3074 3077 3081 3087 3088 3090 3093 3098 3103 3108 3111 3114 3118 3121 3122 3122 3126 3130 3133 3136 3138 3140 3142 3143 3144 3145 3146 3147 3149 3152 3155 3155 3155 3155 3156 3155 3154 3151 3149 3146 3144
3054 3062 3066 3068 3072 3076 3080 3084 3088 3092 3095 3097 3101 3105 3108 3111 3115 3112 3117 3121 3124 3127 3129 3133 3135 3137 3138 3139 3140 3140 3141 3144 3147 3149 3149 3150 3152 3152 3150 3149 3147 3145 3142 3140
3050 3055 3060 3064 3070 3073 3076 3082 3085 3089 3092 3094 3097 3100 3103 3107 3106 3107 3111 3115 3117 3119 3121 3127 3130 3132 3133 3134 3134 3134 3137 3140 3142 3144 3145 3147 3148 3148 3145 3144 3142 3140 3138 3136